Weather History for Walnut Ridge, AR

Change the Weather History Date:

Saturday, February 22, 2014

  Actual Average Record
Temperature  
Mean Temperature 48 °F -  
Max Temperature 64 °F 49 °F 66 °F (2007)
Min Temperature 33 °F 34 °F 23 °F (2009)
Degree Days  
Heating Degree Days 16    
Moisture  
Dew Point 35 °F    
Average Humidity 60    
Maximum Humidity 81    
Minimum Humidity 34    
Precipitation  
Precipitation 0.00 in - - ()
Sea Level Pressure  
Sea Level Pressure 30.00 in    
Wind  
Wind Speed 11 mph (South)    
Max Wind Speed 20 mph    
Max Gust Speed 25 mph    
Visibility 10 miles    
Events      
Averages and records for this station are not official NWS values.
T = Trace of Precipitation, MM = Missing Value Source: NWS Daily Summary

Daily Weather History Graph

Daily Weather History Graph

Search for Another Location

Airport:

Trip Planner

Search our weather history database for the weather conditions in past years. The results will help you decide how hot, cold, wet, or windy it might be!

Date:

Astronomy

Feb. 22, 2014 Rise Set
Actual Time 6:42 AM CST 5:51 PM CST
Civil Twilight 6:16 AM CST 6:17 PM CST
Nautical Twilight 5:47 AM CST 6:47 PM CST
Astronomical Twilight 5:17 AM CST 7:17 PM CST
Moon 12:34 AM CST (2/22) 11:07 AM CST (2/22)
Length of Visible Light 12h 01m
Length of Day
11h 09m
Waning Gibbous, 50% of the Moon is Illuminated
Feb 22
Waning Gibbous
Mar 1
New
Mar 8
First Quarter
Mar 16
Full
Mar 23
Last Quarter

Hourly Weather History & Observations

Time (CST) Temp. Windchill Dew Point Humidity Pressure Visibility Wind Dir Wind Speed Gust Speed Precip Events Conditions
12:15 AM 41.0 °F 33.9 °F 33.8 °F 76% 30.06 in 10.0 mi South 12.7 mph - N/A   Clear
12:35 AM 42.8 °F 35.8 °F 32.0 °F 66% 30.06 in 10.0 mi South 13.8 mph - N/A   Clear
12:55 AM 42.8 °F 36.2 °F 32.0 °F 66% 30.06 in 10.0 mi South 12.7 mph - N/A   Clear
1:15 AM 41.0 °F 33.9 °F 32.0 °F 70% 30.06 in 10.0 mi South 12.7 mph - N/A   Clear
1:35 AM 41.0 °F 34.3 °F 30.2 °F 65% 30.06 in 10.0 mi South 11.5 mph - N/A   Clear
1:55 AM 39.2 °F 32.5 °F 30.2 °F 70% 30.06 in 10.0 mi South 10.4 mph - N/A   Clear
2:15 AM 39.2 °F 32.0 °F 30.2 °F 70% 30.05 in 10.0 mi South 11.5 mph - N/A   Clear
2:35 AM 39.2 °F 32.5 °F 28.4 °F 65% 30.05 in 10.0 mi South 10.4 mph - N/A   Clear
2:55 AM 39.2 °F 33.0 °F 28.4 °F 65% 30.04 in 10.0 mi South 9.2 mph - N/A   Clear
3:15 AM 37.4 °F 30.8 °F 28.4 °F 70% 30.04 in 10.0 mi South 9.2 mph - N/A   Clear
3:35 AM 37.4 °F 30.8 °F 28.4 °F 70% 30.04 in 10.0 mi South 9.2 mph - N/A   Clear
3:55 AM 37.4 °F 30.3 °F 28.4 °F 70% 30.04 in 10.0 mi South 10.4 mph - N/A   Clear
4:15 AM 37.4 °F 30.3 °F 28.4 °F 70% 30.04 in 10.0 mi South 10.4 mph - N/A   Clear
4:35 AM 35.6 °F 29.2 °F 28.4 °F 75% 30.04 in 10.0 mi South 8.1 mph - N/A   Clear
4:55 AM 35.6 °F 29.9 °F 28.4 °F 75% 30.04 in 10.0 mi SSW 6.9 mph - N/A   Clear
5:15 AM 35.6 °F 29.9 °F 28.4 °F 75% 30.05 in 10.0 mi SSW 6.9 mph - N/A   Clear
5:35 AM 35.6 °F 31.7 °F 28.4 °F 75% 30.05 in 10.0 mi SSE 4.6 mph - N/A   Clear
5:55 AM 33.8 °F 27.7 °F 28.4 °F 81% 30.05 in 10.0 mi SSE 6.9 mph - N/A   Clear
6:15 AM 33.8 °F 27.7 °F 28.4 °F 81% 30.05 in 10.0 mi South 6.9 mph - N/A   Clear
6:35 AM 33.8 °F 27.0 °F 28.4 °F 81% 30.05 in 10.0 mi South 8.1 mph - N/A   Clear
6:55 AM 33.8 °F 27.7 °F 26.6 °F 75% 30.06 in 10.0 mi South 6.9 mph - N/A   Clear
7:15 AM 33.8 °F 27.7 °F 28.4 °F 81% 30.06 in 10.0 mi South 6.9 mph - N/A   Clear
7:35 AM 35.6 °F 30.7 °F 30.2 °F 81% 30.07 in 10.0 mi South 5.8 mph - N/A   Clear
7:55 AM 39.2 °F 35.0 °F 33.8 °F 81% 30.08 in 10.0 mi South 5.8 mph - N/A   Clear
8:15 AM 42.8 °F 38.6 °F 32.0 °F 66% 30.07 in 10.0 mi South 6.9 mph - N/A   Clear
8:35 AM 44.6 °F 40.2 °F 33.8 °F 66% 30.07 in 10.0 mi South 8.1 mph - N/A   Clear
8:55 AM 46.4 °F 42.9 °F 33.8 °F 62% 30.07 in 9.0 mi South 6.9 mph - N/A   Clear
9:15 AM 48.2 °F - 33.8 °F 58% 30.07 in 10.0 mi South 6.9 mph - N/A   Clear
9:35 AM 50.0 °F - 33.8 °F 54% 30.07 in 10.0 mi South 6.9 mph - N/A   Clear
9:55 AM 51.8 °F - 35.6 °F 54% 30.06 in 10.0 mi South 8.1 mph - N/A   Clear
10:15 AM 53.6 °F - 35.6 °F 51% 30.06 in 10.0 mi South 12.7 mph - N/A   Clear
10:35 AM 55.4 °F - 33.8 °F 44% 30.06 in 10.0 mi South 12.7 mph - N/A   Clear
10:55 AM 55.4 °F - 37.4 °F 51% 30.05 in 10.0 mi South 12.7 mph - N/A   Clear
11:15 AM 57.2 °F - 35.6 °F 44% 30.05 in 10.0 mi South 17.3 mph - N/A   Clear
11:35 AM 57.2 °F - 35.6 °F 44% 30.04 in 10.0 mi South 13.8 mph - N/A   Clear
11:55 AM 60.8 °F - 35.6 °F 39% 30.03 in 10.0 mi SSW 15.0 mph 19.6 mph N/A   Clear
12:15 PM 60.8 °F - 35.6 °F 39% 30.02 in 10.0 mi South 16.1 mph - N/A   Clear
12:35 PM 62.6 °F - 35.6 °F 37% 30.01 in 10.0 mi SSW 16.1 mph - N/A   Clear
12:55 PM 62.6 °F - 33.8 °F 34% 29.99 in 10.0 mi South 18.4 mph - N/A   Clear
1:15 PM 62.6 °F - 37.4 °F 39% 29.98 in 10.0 mi South 18.4 mph 21.9 mph N/A   Clear
1:35 PM 62.6 °F - 37.4 °F 39% 29.96 in 10.0 mi South 18.4 mph - N/A   Clear
1:55 PM 62.6 °F - 39.2 °F 42% 29.96 in 10.0 mi South 15.0 mph - N/A   Clear
2:15 PM 64.4 °F - 39.2 °F 40% 29.95 in 10.0 mi South 16.1 mph 19.6 mph N/A   Clear
2:35 PM 64.4 °F - 39.2 °F 40% 29.95 in 10.0 mi South 13.8 mph - N/A   Clear
2:55 PM 64.4 °F - 39.2 °F 40% 29.94 in 10.0 mi South 17.3 mph - N/A   Clear
3:15 PM 64.4 °F - 39.2 °F 40% 29.93 in 10.0 mi South 17.3 mph - N/A   Clear
3:35 PM 64.4 °F - 37.4 °F 37% 29.92 in 10.0 mi South 19.6 mph 25.3 mph N/A   Clear
3:55 PM 62.6 °F - 39.2 °F 42% 29.92 in 10.0 mi South 19.6 mph 25.3 mph N/A   Clear
4:15 PM 62.6 °F - 37.4 °F 39% 29.91 in 10.0 mi SSE 16.1 mph - N/A   Clear
4:35 PM 62.6 °F - 39.2 °F 42% 29.91 in 10.0 mi South 16.1 mph - N/A   Clear
4:55 PM 60.8 °F - 39.2 °F 45% 29.91 in 10.0 mi SSE 13.8 mph - N/A   Clear
5:15 PM 59.0 °F - 41.0 °F 51% 29.91 in 10.0 mi South 12.7 mph - N/A   Clear
5:35 PM 57.2 °F - 41.0 °F 55% 29.91 in 10.0 mi South 11.5 mph - N/A   Clear
5:55 PM 55.4 °F - 41.0 °F 58% 29.91 in 10.0 mi SSE 10.4 mph - N/A   Clear
6:15 PM 53.6 °F - 41.0 °F 62% 29.91 in 10.0 mi SSE 11.5 mph - N/A   Clear
6:35 PM 53.6 °F - 39.2 °F 58% 29.90 in 10.0 mi SSE 10.4 mph - N/A   Clear
6:55 PM 51.8 °F - 39.2 °F 62% 29.91 in 10.0 mi SSE 11.5 mph - N/A   Clear
7:15 PM 51.8 °F - 37.4 °F 58% 29.91 in 10.0 mi South 9.2 mph - N/A   Clear
7:35 PM 51.8 °F - 37.4 °F 58% 29.92 in 10.0 mi South 10.4 mph - N/A   Clear
7:55 PM 51.8 °F - 37.4 °F 58% 29.92 in 10.0 mi South 11.5 mph - N/A   Clear
8:15 PM 50.0 °F - 37.4 °F 62% 29.93 in 10.0 mi South 9.2 mph - N/A   Clear
8:35 PM 48.2 °F - 37.4 °F 66% 29.94 in 10.0 mi South 9.2 mph - N/A   Clear
8:55 PM 48.2 °F - 37.4 °F 66% 29.94 in 10.0 mi South 8.1 mph - N/A   Clear
9:15 PM 46.4 °F 42.9 °F 37.4 °F 71% 29.94 in 10.0 mi South 6.9 mph - N/A   Clear
9:35 PM 46.4 °F 43.5 °F 37.4 °F 71% 29.95 in 10.0 mi South 5.8 mph - N/A   Clear
9:55 PM 46.4 °F 43.5 °F 37.4 °F 71% 29.95 in 10.0 mi South 5.8 mph - N/A   Clear
10:15 PM 46.4 °F 45.2 °F 37.4 °F 71% 29.95 in 10.0 mi SSE 3.5 mph - N/A   Clear
10:35 PM 46.4 °F 44.3 °F 37.4 °F 71% 29.95 in 10.0 mi SSE 4.6 mph - N/A   Clear
10:55 PM 46.4 °F 43.5 °F 37.4 °F 71% 29.94 in 10.0 mi SSE 5.8 mph - N/A   Clear
11:15 PM 44.6 °F 40.7 °F 37.4 °F 76% 29.94 in 10.0 mi South 6.9 mph - N/A   Clear
11:35 PM 44.6 °F 40.2 °F 35.6 °F 71% 29.94 in 10.0 mi South 8.1 mph - N/A   Clear
11:55 PM 44.6 °F 39.7 °F 37.4 °F 76% 29.94 in 10.0 mi South 9.2 mph - N/A   Clear